Tracking 25193 objects as of 18-Jan-2022
HD Live streaming from Space Station
objects crossing your sky now

SATCOM 2R

Track SATCOM 2R now!
SATCOM 2R is classified as:


NORAD ID: 14328
Int'l Code: 1983-094A
Perigee: 35,961.1 km
Apogee: 36,111.1 km
Inclination: 15.1 °
Period: 1,448.5 minutes
Semi major axis: 42407 km
RCS: 4.023 m2 (large)
Launch date: September 8, 1983
Source: United States (US)
Launch site: AIR FORCE EASTERN TEST RANGE (AFETR)
aabbcc
Your satellite tracking list
Your tracking list is empty




NASA's NSSDC Master Catalog

Two Line Element Set (TLE):
1 14328U 83094A   22017.76204719 -.00000318  00000-0  00000-0 0  9993
2 14328  15.1139 358.3723 0017678  35.0913 142.1510  0.99413418139535
Source of the keplerian elements: AFSPC